This is the latest recevied weather packets stored in our database for station/object WY7ATH-2. If no packets are shown the sender has not sent any weather packets the latest 10 day(s).
| Time | Temp. | Humidity | Pressure | Rain* | Wind** | Luminosity | Snow |
|---|---|---|---|---|---|---|---|
| 1777944195 | 8.89° C | - | - | 7.87 mm | 0 m/s | - | - |
| 1777944036 | 8.89° C | - | - | 7.87 mm | 0 m/s | - | - |
| 1777943418 | 8.89° C | - | - | 7.87 mm | 0 m/s | - | - |
| 1777943355 | 8.89° C | - | - | 7.87 mm | 0 m/s | - | - |
| 1777942822 | 8.89° C | - | - | 7.87 mm | 0 m/s | - | - |
| 1777942223 | 8.89° C | - | - | 8.64 mm | 0 m/s | - | - |
| 1777941788 | 8.33° C | - | - | 9.65 mm | 0 m/s | - | - |
| 1777941781 | 8.33° C | - | - | 9.65 mm | 0 m/s | - | - |
| 1777941623 | 8.89° C | - | - | 8.64 mm | 0 m/s | - | - |
| 1777939233 | 9.44° C | - | - | 8.64 mm | 0 m/s | - | - |
| 1777938636 | 8.33° C | - | - | 9.65 mm | 0 m/s | - | - |
| 1777938039 | 8.33° C | - | - | 9.65 mm | 0 m/s | - | - |
| 1777936845 | 8.89° C | - | - | 9.65 mm | 0 m/s | - | - |
| 1777935050 | 12.22° C | - | - | 12.45 mm | 0 m/s | - | - |
| 1777934498 | 12.78° C | - | - | 12.45 mm | 0 m/s | - | - |
| 1777934454 | 12.78° C | - | - | 12.45 mm | 0 m/s | - | - |
| 1777933934 | 12.22° C | - | - | 12.45 mm | 0 m/s | - | - |
| 1777933857 | 12.22° C | - | - | 12.45 mm | 0 m/s | - | - |
| 1777933817 | 12.22° C | - | - | 12.45 mm | 0 m/s | - | - |
| 1777933260 | 12.22° C | - | - | 12.45 mm | 0 m/s | - | - |
| 1777932062 | 12.78° C | - | - | 12.45 mm | 0 m/s | - | - |
| 1777928477 | 13.33° C | - | - | 11.94 mm | 0 m/s | - | - |
| 1777926686 | 15.56° C | - | - | 14.22 mm | 0 m/s | - | - |
| 1777926089 | 12.22° C | - | - | 14.22 mm | 0 m/s | - | - |
| 1777923698 | 12.78° C | - | - | 17.02 mm | 0 m/s | - | - |
* Rain latest hour (hover to see other rain measurements)
** Current wind speed in m/s (hover to see current wind gust speed)